Retour au catalogue

THORAD AGENA D DEB

ActifPO
NORAD 4867·DEBRIS·🇺🇸 United States

Lancé Apr 8, 1970 depuis Vandenberg Space Force Base

Loading…

Prochains Passages

TLE

Source: Space-Track
1 04867U 70025EX  26224.60391473 -.00000005  00000-0  28061-4 0  9995
2 04867  99.6344 171.4858 0123606 322.4407  36.8170 14.01817336862641

Suivez THORAD AGENA D DEB en temps réel avec AllMySat

Download on the App Store